Wind_Speed
58 57 55 54 53 52 50 49 49 48 45 43 42 43 46 46 43 42 43 42 42 44 44 44 45 45 45 45 46 46 47 48 48 47 45 43 42 41 40 39 38 37
59 59 57 57 56 53 52 51 50 47 45 43 42 44 47 47 44 44 45 43 43 45 45 45 46 46 47 47 47 48 48 48 47 45 43 42 40 38 37 37 36 35
61 60 59 59 58 55 53 51 50 48 45 42 42 45 48 48 45 45 46 44 44 45 46 46 47 48 48 49 49 49 48 47 44 42 41 40 38 36 35 35 34 32
63 63 62 62 60 57 54 52 50 48 45 43 43 46 48 48 46 46 46 45 44 45 47 48 49 49 50 50 50 49 47 44 41 40 39 37 36 35 34 33 32 30
66 66 65 64 62 59 56 54 53 50 47 44 44 46 49 49 48 47 47 47 46 46 48 50 50 51 51 50 49 47 43 41 39 38 37 35 34 33 33 32 32 30
68 68 67 66 64 61 58 57 56 53 50 47 47 48 50 51 50 48 48 48 48 48 49 50 51 51 51 49 47 43 40 38 37 35 34 34 33 32 32 32 31 30
68 69 68 67 64 60 59 58 57 55 52 50 49 50 51 53 52 50 48 49 50 49 49 51 51 51 49 46 43 39 37 36 34 33 33 32 31 31 31 31 30 29
68 68 67 64 61 58 58 58 56 55 53 51 50 51 52 54 53 51 49 50 51 50 49 50 50 49 46 42 38 36 35 34 32 31 31 31 31 31 30 30 29 28
66 65 63 60 57 56 56 56 54 52 51 50 50 51 52 54 53 51 50 50 50 49 49 48 47 46 43 37 35 34 33 31 29 29 30 30 30 30 29 29 29 28
64 62 59 57 55 54 55 54 52 50 47 48 49 50 52 53 51 50 49 49 48 48 47 45 45 43 38 34 33 32 30 28 27 28 28 29 29 29 29 29 29 28
63 61 58 56 55 54 54 54 52 48 45 45 47 49 50 51 49 48 47 46 46 46 45 43 42 39 35 32 32 30 27 26 26 27 27 28 29 30 30 29 29 29
63 60 58 57 56 55 54 54 52 48 44 43 44 46 48 48 46 46 45 44 44 44 43 41 39 36 33 31 29 26 25 26 26 26 27 28 29 30 30 30 30 31
61 59 57 57 56 55 54 54 51 47 44 42 42 43 45 45 44 43 43 43 43 42 41 39 36 33 32 29 26 25 25 26 27 27 27 28 29 30 30 30 31 32
60 57 56 56 55 54 53 52 49 45 43 42 41 42 44 43 42 42 42 42 41 41 40 36 33 32 31 27 24 25 26 28 28 28 28 28 29 30 30 30 32 33
59 56 55 54 53 52 51 50 47 43 41 40 40 42 43 42 40 41 41 40 40 40 37 33 31 31 29 25 25 26 27 29 29 29 29 28 28 29 30 31 32 35
59 56 54 54 53 51 50 48 44 41 39 39 40 42 43 42 40 39 40 40 39 38 34 31 31 30 28 26 26 27 29 30 30 30 29 28 28 29 30 31 33 35
58 56 54 55 54 51 50 46 43 40 38 39 41 42 43 42 39 38 40 39 38 36 33 31 31 30 28 27 27 28 30 30 31 31 30 29 29 30 30 31 33 35
58 56 56 56 55 53 49 45 42 40 39 40 42 42 43 40 38 38 40 38 37 35 32 31 31 30 28 28 28 29 30 31 32 32 31 30 30 30 30 32 33 34
59 58 58 58 57 55 50 45 43 42 41 41 42 42 42 39 37 39 40 38 36 34 32 31 31 31 30 29 29 30 30 32 33 33 32 31 31 31 31 31 32 33
60 59 60 60 59 56 51 46 44 43 42 42 43 42 41 39 38 39 39 37 36 34 32 31 32 32 30 29 30 30 31 32 33 33 33 33 32 31 31 33 33 34
62 62 61 61 60 58 52 48 47 46 44 44 43 43 42 40 39 39 39 38 36 35 33 31 33 33 31 30 31 31 32 33 34 34 34 34 33 33 34 35 36 36
65 65 63 62 61 59 54 50 49 48 46 45 44 43 41 40 40 40 40 39 37 35 33 32 34 35 33 32 32 33 33 34 35 35 34 34 35 36 37 38 38 38
68 68 66 64 63 60 55 53 52 50 48 47 46 44 41 41 41 41 41 40 38 36 34 34 36 36 34 34 34 34 35 35 36 36 35 36 38 38 39 40 40 40
71 71 69 67 65 61 58 56 54 52 50 48 47 44 42 42 43 43 42 41 39 38 36 36 37 36 35 36 36 36 36 36 37 37 37 38 39 40 41 42 42 42
75 74 72 69 67 63 60 58 57 54 52 51 49 45 42 43 44 44 44 42 41 40 38 37 37 37 37 38 38 38 39 39 38 38 39 40 40 41 42 42 43 42
77 76 74 71 68 66 63 60 58 56 54 52 50 46 43 44 44 45 45 44 43 42 40 38 37 38 38 38 39 40 41 41 41 40 41 42 42 42 41 41 42 41
Wind_Direction
251 252 253 254 256 257 258 259 260 262 265 268 270 271 271 273 275 275 276 278 279 281 282 283 285 287 289 290 292 294 295 298 300 300 300 299 299 301 303 304 306 308
250 252 253 255 256 256 257 258 260 262 264 267 269 269 270 272 274 275 276 277 278 280 281 283 285 287 289 291 292 294 296 298 300 300 300 299 300 303 304 306 307 308
250 252 253 254 255 255 256 258 260 261 263 265 266 267 269 271 273 274 275 276 277 279 281 283 285 287 289 291 293 295 297 299 300 299 298 299 302 304 305 306 307 306
249 251 252 253 254 255 256 257 258 259 260 262 263 266 268 270 272 273 274 276 277 278 280 283 285 287 289 291 293 295 297 299 298 297 298 300 302 304 305 306 305 304
248 250 251 252 254 255 256 256 257 257 258 259 261 264 267 269 270 272 273 275 276 278 280 283 286 288 289 291 292 295 297 297 295 296 298 301 302 303 304 305 303 304
248 250 251 253 254 255 255 256 257 257 257 258 260 262 265 267 269 270 272 274 276 278 280 283 286 288 289 290 292 295 295 294 294 296 299 300 301 303 304 304 303 304
248 250 252 253 255 256 256 257 257 258 257 256 258 260 263 266 268 270 271 273 276 279 281 284 286 287 288 289 292 293 292 292 294 297 298 299 301 303 303 302 302 303
247 249 251 253 255 255 256 256 257 257 257 255 256 258 261 264 267 269 271 273 276 279 282 284 285 285 286 289 291 291 290 291 295 296 297 299 301 302 301 300 300 301
247 249 251 252 254 253 254 255 256 256 256 255 254 256 259 263 267 269 271 273 277 280 282 283 283 283 286 288 288 287 288 291 293 295 297 299 300 300 299 298 297 298
246 248 250 251 252 252 252 254 255 255 255 254 254 255 259 263 266 269 271 274 277 279 280 280 281 282 285 286 285 285 288 290 292 294 297 299 299 298 297 295 294 294
246 248 249 250 250 251 252 254 255 256 255 254 254 256 259 262 266 269 271 274 276 277 277 278 279 281 283 282 281 284 286 288 290 294 297 298 298 297 295 293 291 292
246 247 248 249 250 251 252 254 256 256 256 255 255 257 259 262 265 268 270 272 273 274 275 276 277 278 279 278 280 282 283 285 288 292 295 297 297 295 293 291 290 292
245 246 246 248 249 250 252 254 256 257 256 255 255 256 259 261 263 266 268 269 270 271 271 273 275 275 274 276 277 279 281 283 287 290 294 296 297 295 292 290 290 292
244 245 245 247 248 250 252 254 256 256 255 255 254 255 256 259 261 263 264 266 266 267 268 271 271 271 271 273 274 276 279 282 285 288 291 294 297 296 292 290 291 294
243 244 245 246 248 249 251 254 255 255 255 255 254 254 255 256 257 259 261 262 262 264 267 268 267 267 269 269 269 274 279 282 285 287 290 293 296 295 291 291 294 297
241 243 244 246 248 249 250 252 254 254 254 253 252 253 254 255 256 257 258 259 260 262 265 265 263 264 265 265 268 274 278 281 285 287 289 292 294 294 293 294 299 301
240 242 243 246 248 249 250 252 254 254 253 252 251 252 254 255 255 255 256 257 258 261 262 260 261 263 263 263 268 274 277 281 285 287 289 291 291 292 295 298 301 302
239 241 243 246 248 250 251 252 254 254 253 252 252 253 254 255 254 254 255 256 257 259 258 258 260 261 261 263 268 273 277 281 284 286 289 289 288 290 295 299 300 301
238 240 242 245 247 249 250 251 253 254 253 253 254 255 256 255 253 253 254 255 255 256 256 256 258 259 259 263 269 272 276 280 284 288 289 287 285 288 294 297 298 299
238 239 241 244 246 249 249 250 251 252 253 254 255 256 256 253 251 252 253 254 254 253 254 254 256 257 259 264 268 271 275 280 285 288 289 286 285 287 291 294 295 295
238 239 241 243 245 248 248 248 249 250 252 253 254 255 255 253 251 252 253 253 252 251 252 253 254 257 260 264 267 270 274 279 284 288 289 288 286 285 288 291 291 290
239 239 240 241 243 246 246 246 247 249 250 252 253 254 254 252 251 251 251 251 250 251 251 251 253 257 260 264 267 271 275 279 284 287 290 290 288 286 286 288 288 290
240 240 240 240 241 243 244 244 246 247 249 250 252 252 252 251 250 250 250 250 249 250 250 249 252 256 261 265 269 272 276 280 284 287 290 292 292 289 286 286 287 290
240 240 240 239 240 241 241 242 244 246 247 248 250 250 251 251 250 249 249 249 248 249 249 249 252 256 261 265 269 273 277 280 284 286 289 293 295 293 289 287 287 290
239 239 239 239 239 240 240 241 242 244 245 246 248 248 249 249 249 248 249 248 247 248 248 249 253 257 261 265 269 273 277 280 283 287 290 294 296 294 291 289 288 291
238 239 239 239 239 239 239 239 241 242 243 245 246 247 247 248 248 247 248 248 248 248 249 251 255 259 262 266 270 274 278 282 286 289 292 294 295 294 291 290 290 292
Height
10711 10714 10716 10718 10721 10724 10726 10728 10730 10733 10735 10736 10735 10734 10733 10734 10736 10736 10736 10737 10735 10734 10734 10733 10733 10732 10732 10731 10730 10729 10728 10726 10725 10722 10721 10719 10717 10716 10713 10711 10708 10706
10706 10708 10711 10713 10715 10718 10721 10723 10726 10729 10731 10732 10731 10730 10728 10730 10731 10731 10732 10732 10732 10730 10729 10729 10729 10728 10727 10726 10725 10724 10723 10722 10720 10718 10716 10714 10712 10711 10708 10706 10704 10703
10700 10702 10705 10706 10709 10712 10716 10719 10722 10725 10727 10728 10727 10725 10724 10726 10727 10727 10727 10728 10728 10726 10725 10725 10724 10724 10723 10722 10720 10719 10718 10717 10715 10713 10711 10709 10708 10706 10704 10702 10701 10699
10695 10696 10699 10700 10704 10708 10711 10714 10717 10719 10722 10723 10722 10721 10720 10721 10722 10722 10722 10723 10724 10723 10721 10720 10720 10719 10718 10717 10716 10714 10713 10712 10710 10709 10707 10705 10704 10702 10700 10699 10697 10696
10688 10690 10693 10695 10699 10702 10706 10709 10711 10714 10717 10718 10717 10717 10716 10716 10718 10718 10718 10719 10720 10719 10717 10716 10716 10715 10714 10713 10711 10710 10709 10707 10706 10705 10703 10701 10700 10698 10696 10695 10694 10692
10683 10685 10687 10690 10693 10697 10701 10704 10706 10709 10712 10713 10713 10712 10711 10712 10713 10714 10714 10714 10715 10715 10713 10712 10711 10710 10709 10708 10707 10706 10705 10703 10702 10701 10699 10698 10696 10695 10693 10692 10690 10689
10678 10679 10681 10684 10688 10692 10696 10698 10701 10704 10706 10708 10708 10708 10707 10707 10708 10709 10710 10709 10710 10710 10709 10708 10707 10705 10704 10704 10703 10701 10700 10699 10698 10697 10695 10694 10693 10692 10690 10689 10687 10686
10671 10673 10676 10679 10684 10688 10690 10692 10695 10698 10700 10703 10703 10703 10703 10702 10703 10705 10705 10705 10705 10705 10705 10704 10702 10701 10700 10699 10699 10697 10696 10696 10694 10693 10692 10691 10690 10688 10687 10686 10684 10683
10665 10668 10672 10675 10679 10682 10684 10686 10689 10692 10695 10697 10698 10698 10698 10697 10698 10700 10701 10700 10700 10700 10700 10699 10698 10696 10695 10695 10695 10693 10693 10692 10691 10690 10689 10687 10686 10685 10683 10682 10681 10679
10661 10664 10668 10671 10674 10677 10678 10681 10684 10687 10690 10692 10693 10694 10693 10693 10694 10695 10696 10696 10696 10695 10695 10694 10693 10692 10691 10691 10691 10690 10689 10688 10688 10687 10686 10684 10683 10681 10680 10678 10677 10675
10656 10660 10664 10667 10669 10671 10673 10675 10679 10682 10685 10687 10688 10689 10688 10689 10690 10690 10691 10691 10691 10690 10690 10689 10689 10688 10687 10687 10687 10686 10686 10685 10685 10684 10682 10681 10679 10677 10676 10674 10673 10672
10652 10656 10659 10661 10663 10665 10667 10670 10674 10678 10680 10682 10683 10683 10684 10684 10685 10685 10686 10686 10686 10686 10685 10685 10684 10684 10684 10683 10683 10683 10682 10682 10681 10680 10678 10677 10675 10674 10672 10671 10669 10668
10647 10651 10653 10656 10658 10660 10662 10665 10670 10673 10675 10676 10677 10678 10679 10679 10680 10681 10681 10681 10681 10681 10680 10680 10680 10680 10680 10680 10679 10679 10679 10678 10678 10676 10675 10673 10672 10670 10668 10667 10666 10664
10642 10645 10648 10650 10653 10656 10658 10661 10665 10668 10670 10671 10672 10673 10673 10674 10675 10676 10676 10676 10676 10676 10675 10676 10676 10676 10676 10676 10676 10676 10675 10674 10673 10672 10671 10669 10668 10666 10665 10663 10662 10661
10636 10639 10643 10645 10648 10651 10654 10656 10660 10662 10665 10666 10667 10667 10668 10669 10671 10671 10671 10671 10671 10671 10671 10672 10672 10671 10672 10672 10672 10672 10671 10670 10669 10668 10667 10665 10664 10663 10661 10660 10659 10657
10631 10635 10638 10641 10643 10647 10649 10651 10654 10657 10660 10661 10661 10661 10662 10664 10666 10666 10666 10666 10666 10666 10667 10667 10667 10667 10668 10669 10669 10668 10667 10666 10665 10664 10663 10662 10661 10659 10658 10656 10655 10653
10626 10630 10634 10636 10638 10641 10644 10647 10649 10652 10654 10655 10656 10656 10657 10659 10661 10661 10661 10661 10661 10662 10662 10663 10663 10663 10664 10665 10665 10664 10663 10662 10661 10660 10659 10658 10657 10655 10654 10653 10651 10649
10622 10626 10629 10630 10633 10636 10639 10642 10645 10647 10649 10650 10650 10651 10652 10654 10656 10656 10655 10656 10657 10657 10658 10658 10658 10659 10660 10660 10660 10660 10659 10658 10657 10656 10655 10654 10653 10652 10650 10649 10648 10646
10618 10622 10623 10625 10628 10631 10634 10638 10640 10642 10644 10644 10645 10647 10648 10650 10651 10650 10650 10651 10652 10652 10653 10654 10654 10654 10656 10656 10656 10655 10655 10654 10653 10652 10652 10650 10649 10648 10647 10646 10644 10642
10614 10617 10618 10620 10622 10625 10630 10634 10635 10637 10639 10640 10641 10642 10643 10645 10645 10645 10646 10647 10647 10648 10649 10650 10650 10650 10651 10652 10651 10651 10651 10651 10650 10649 10648 10646 10645 10644 10643 10642 10640 10639
10609 10611 10612 10615 10617 10621 10626 10629 10630 10632 10633 10635 10636 10637 10639 10640 10640 10641 10641 10642 10643 10644 10645 10646 10646 10646 10647 10647 10647 10647 10647 10647 10646 10645 10644 10643 10641 10640 10639 10638 10637 10635
10603 10605 10607 10610 10612 10616 10620 10623 10624 10626 10628 10629 10631 10632 10634 10635 10635 10636 10636 10637 10639 10640 10641 10642 10641 10641 10643 10643 10642 10642 10643 10642 10642 10641 10640 10639 10637 10636 10635 10634 10632 10631
10596 10598 10601 10604 10606 10611 10615 10617 10618 10620 10622 10624 10625 10627 10629 10630 10631 10631 10631 10633 10635 10636 10637 10637 10636 10636 10638 10638 10638 10638 10638 10638 10637 10636 10635 10634 10633 10632 10631 10629 10628 10627
10589 10591 10594 10597 10601 10606 10609 10610 10612 10614 10616 10618 10620 10622 10624 10625 10626 10626 10627 10629 10631 10631 10632 10632 10631 10632 10633 10633 10633 10633 10633 10633 10632 10632 10631 10630 10629 10628 10626 10625 10624 10623
10580 10582 10587 10591 10595 10600 10602 10604 10606 10608 10610 10612 10614 10618 10620 10620 10621 10622 10622 10624 10626 10626 10627 10627 10627 10628 10628 10628 10628 10628 10628 10628 10628 10627 10626 10625 10624 10623 10622 10621 10619 10619
10573 10575 10580 10585 10589 10593 10596 10598 10600 10602 10604 10607 10610 10613 10615 10615 10616 10617 10617 10619 10621 10621 10622 10623 10623 10623 10624 10624 10624 10623 10623 10623 10623 10623 10622 10621 10620 10618 10617 10616 10615 10614